Regional Weather Roundup
Issued by NWS

Home | Current Version | Previous Version | Text Only | Print | Product List | Glossary Off
Versions: 1 2 3 4 5 6 7 8 9 10 11 12 13 14 15 16 17 18 19 20 21 22 23 24 25 26 27 28 29 30 31 32 33 34 35 36 37 38 39 40 41 42 43 44 45 46 47 48 49 50

658
ASUS43 KIND 261609
RWRIN

WEATHER ROUNDUP FOR INDIANA
NATIONAL WEATHER SERVICE INDIANAPOLIS IN
1100 AM EST SUN FEB 26 2017

NOTE: "FAIR" INDICATES FEW OR NO CLOUDS BELOW 12,000 FEET WITH NO
SIGNIFICANT WEATHER AND/OR OBSTRUCTIONS TO VISIBILITY.

* - STATION DOES NOT REPORT WEATHER SUCH AS PRECIPITATION OR FOG.

+ - STATION NOT QUALITY CONTROLLED BY THE NATIONAL WEATHER SERVICE.
    USE DATA WITH CAUTION...ESPECIALLY DEWPOINT AND RELATIVE
    HUMIDITY OBSERVATIONS.

INZ001>003-010>013-019-020-261700-
NORTHWEST INDIANA

CITY           SKY/WX    TMP DP  RH WIND       PRES   REMARKS
GARY /AIRPORT/ PTSUNNY   36  14  41 S23       30.04F
KNOX *+        MOSUNNY   34  -2  21 S20       30.08F WCI  22
LA PORTE +     MOSUNNY   33  21  61 S14G23    30.06F WCI  23
MICHIGAN CITY+ PTSUNNY   34  19  55 S15G26    30.05F WCI  24
MONTICELLO +   SUNNY     34  17  50 S16       30.11F WCI  24
RENSSELAER +     N/A     36  18  48 S16       30.09F
VALPARAISO     PTSUNNY   35  19  52 S18G26    30.06F WCI  24

$$

LMZ046-743>745-261700-
SOUTHERN LAKE MICHIGAN

STATION/POSITION TIME  TEMP    WIND        PRES    WAVE
                       AIR SEA DIR/SP/G            HT
                 (UTC) (F)     (DEG/KT/KT) (MB)    (FT)
BURNS HARBOR     1515   31     190/ 17     1017.9S
MICHIGAN CITY    1540   32     160/ 17/ 20   N/A

$$

INZ004-005-014>016-021>024-261700-
NORTH CENTRAL INDIANA

CITY           SKY/WX    TMP DP  RH WIND       PRES   REMARKS
ELKHART        SUNNY     30  18  59 S12G22    30.08  WCI  21
GOSHEN         MOSUNNY   32  17  54 S21       30.08S WCI  20
LOGANSPORT +   SUNNY     32  23  69 S15       30.14S WCI  22
PERU/GRISSOM   SUNNY     33  22  64 S14       30.11F WCI  23
ROCHESTER +    SUNNY     36  21  55 S14       30.11F
SOUTH BEND     CLOUDY    32  19  58 S17       30.07S WCI  21

$$

INZ006>009-017-018-025>027-261700-
NORTHEAST INDIANA

CITY           SKY/WX    TMP DP  RH WIND       PRES   REMARKS
ANGOLA *+      MOSUNNY   30  19  64 SW14      30.07S WCI  20
AUBURN +       SUNNY     32  18  55 S12G17    30.12R WCI  23
FORT WAYNE     MOSUNNY   30  21  69 SW15G22   30.14R WCI  19
HUNTINGTON +   MOSUNNY   31  18  57 S12G17    30.13F WCI  22
KENDALLVILLE + SUNNY     31  19  58 S17       30.09S WCI  20

$$

INZ028-029-035-036-043>045-051>053-261700-
WEST CENTRAL INDIANA

CITY           SKY/WX    TMP DP  RH WIND       PRES   REMARKS
LAFAYETTE      SUNNY     34  19  54 S10G20    30.13F WCI  26
TERRE HAUTE    SUNNY     38  15  39 S14       30.17F

$$

INZ030>032-037>040-046>048-054>057-064-065-261700-
CENTRAL INDIANA

CITY           SKY/WX    TMP DP  RH WIND       PRES   REMARKS
CP ATTERBURY + SUNNY     36  18  48 S9        30.20F
COLUMBUS       SUNNY     34  19  55 S9        30.22S WCI  26
FISHERS *+     SUNNY     34  21  60 SW10G16   30.17S WCI  26
FRANKFORT +    SUNNY     35  22  59 S12       30.15S WCI  27
GREENWOOD *+   SUNNY     35  19  52 S10       30.19F WCI  27
INDIANAPOLIS   MOSUNNY   34  17  50 S13       30.17F WCI  25
-EAGLE CREEK   SUNNY     35  17  47 S9        30.16F WCI  28
KOKOMO +       SUNNY     33  22  63 S14       30.15S WCI  23
MARION +       SUNNY     31  22  69 SW16      30.16S WCI  20
MT COMFORT *+  SUNNY     34  19  55 S13       30.17F WCI  25
SHELBYVILLE    SUNNY     35  18  49 S14       30.19S WCI  26
ZIONSVILLE +   SUNNY     32  21  62 S10G16    30.16S WCI  24

$$

INZ033-034-041-042-049-050-058-059-261700-
EAST CENTRAL INDIANA

CITY           SKY/WX    TMP DP  RH WIND       PRES   REMARKS
MUNCIE         SUNNY     33  19  56 SW10      30.16R WCI  25

$$

INZ060-061-067>069-081>083-085>088-261700-
SOUTHWEST INDIANA

CITY           SKY/WX    TMP DP  RH WIND       PRES   REMARKS
EVANSVILLE     SUNNY     38  16  40 SE10      30.23S
HUNTINGBURG *+ SUNNY     37  18  44 SE12      30.23S
WASHINGTON +   SUNNY     36  17  46 S12       30.21F

$$

INZ062-063-066-070>080-084-089>092-261700-
SOUTH CENTRAL AND SOUTHEAST INDIANA

CITY           SKY/WX    TMP DP  RH WIND       PRES   REMARKS
BEDFORD +      SUNNY     36  18  48 S7        30.21S
BLOOMINGTON    SUNNY     37  16  42 S7        30.19S
MADISON *+     SUNNY     36  19  51 SW3       30.24S
NORTH VERNON + SUNNY     34  18  51 SE3       30.22S
SEYMOUR +      SUNNY     37  19  48 SE7       30.23F

$$





USA.gov is the U.S. government's official web portal to all federal, state and local government web resources and services.